Station MCGM4 - 9099018 - Marquette C.G., MI Image indicating link to RSS feed of recent meteorological observations for station MCGM4


Conditions at MCGM4 as of
(4:30 pm EDT)
2030 GMT on 07/20/2024:
     

Click on the graph icon in the table below to see a time series plot of the last five days of that observation.

5-day plot - Wind Direction Wind Direction (WDIR): N ( 360 deg true )
5-day plot - Wind Speed Wind Speed (WSPD): 8.9 kts
5-day plot - Wind Gust Wind Gust (GST): 12.0 kts
5-day plot - Atmospheric Pressure Atmospheric Pressure (PRES):30.03 in
5-day plot - Air Temperature Air Temperature (ATMP): 62.1 °F
5-day plot - Dew Point Dew Point (DEWP): 56.7 °F
5-day plot - Wind Speed at 10 Meters Wind Speed at 10 meters (WSPD10M): 9.7 kts
5-day plot - Wind Speed at 20 Meters Wind Speed at 20 meters (WSPD20M): 9.7 kts
5-day plot -  Wind Speed, Wind Gust and Atmospheric Pressure Combined plot of Wind Speed, Gust, and Air Pressure
NOS Water Level Observation Network Water Level
Previous observations
TIME
(EDT)
5-day plot - Wind Direction
WDIR
 
5-day plot - Wind Speed
WSPD
kts
5-day plot - Wind Gust
GST
kts
5-day plot - Wave Height
WVHT
ft
5-day plot - Dominant Wave Period
DPD
sec
5-day plot - Average Wave Period
APD
sec
5-day plot - Mean Wave Direction
MWD
 
5-day plot - Atmospheric Pressure
PRES
in
5-day plot - Pressure Tendency
PTDY
in
5-day plot - Air Temperature
ATMP
°F
5-day plot - Water Temperature
WTMP
°F
5-day plot - Dew Point
DEWP
°F
5-day plot - Salinity
SAL
psu
5-day plot - Visibility
VIS
nmi
5-day plot - Tide (above MLLW)
TIDE
ft
2024-07-20 04:24 pm N 8.0 12.0----30.03- 62.4- 56.7---
2024-07-20 04:18 pm N 8.9 11.1----30.03- 62.6- 56.8---
2024-07-20 04:12 pm N 8.0 12.0----30.03- 63.1- 56.8---
2024-07-20 04:06 pm N 8.9 11.1----30.03- 62.8- 56.5---
2024-07-20 04:00 pm N 8.0 11.1------ 63.1- 56.7---
2024-07-20 03:54 pm N 8.9 9.9------ 63.1- 56.5---
2024-07-20 03:48 pm N 6.0 9.9----30.03-------
2024-07-20 03:42 pm N 7.0 11.1----30.03-------
2024-07-20 03:36 pm N 7.0 11.1----30.03-------
2024-07-20 03:30 pm N 8.0 11.1----30.03- 62.6- 56.5---
2024-07-20 03:24 pm N 8.0 12.0----30.03- 62.6- 56.7---
2024-07-20 03:18 pm N 8.9 12.0----30.04- 62.8- 56.8---
2024-07-20 03:12 pm N 7.0 12.0----30.04- 62.6- 56.8---
2024-07-20 03:06 pm N 8.0 11.1----30.04- 62.6- 56.8---
2024-07-20 03:00 pm N 7.0 11.1----30.04+0.04 62.4- 56.8---
2024-07-20 02:54 pm N 6.0 8.9----30.04- 62.2- 56.7---
2024-07-20 02:48 pm N 6.0 11.1----30.04-------
2024-07-20 02:42 pm N 8.0 11.1----30.04-------
2024-07-20 02:36 pm N 7.0 9.9----30.04-------
2024-07-20 02:30 pm N 5.1 8.0----30.03- 62.6- 57.4---
2024-07-20 02:24 pm N 6.0 9.9----30.03- 62.2- 57.2---
2024-07-20 02:18 pm N 7.0 11.1----30.03- 62.4- 57.2---
2024-07-20 02:12 pm N 7.0 12.0----30.03- 63.1- 57.7---
2024-07-20 02:06 pm N 8.0 11.1----30.03- 62.8- 57.9---
2024-07-20 02:00 pm N 8.0 11.1----30.03+0.05 63.3- 57.9---
2024-07-20 01:54 pm N 8.0 11.1----30.02- 64.2- 58.8---
2024-07-20 01:48 pm N 7.0 11.1----30.02- 64.8- 59.4---
2024-07-20 01:42 pm N 7.0 9.9----30.01- 66.0- 60.1---
2024-07-20 01:36 pm N 6.0 9.9----30.01- 65.1- 59.5---
2024-07-20 01:30 pm N 8.0 11.1----30.01- 65.5- 59.9---
2024-07-20 01:24 pmNNW 6.0 11.1----30.01- 65.5- 59.7---
2024-07-20 01:18 pmNNW 4.1 7.0----30.01- 66.0- 59.9---
2024-07-20 01:12 pm N 4.1 12.0----30.01- 67.1- 59.9---
2024-07-20 01:06 pm N 7.0 11.1----30.01- 70.3- 61.3---
2024-07-20 12:48 pm N 6.0 9.9----30.00-------
2024-07-20 12:42 pm N 7.0 9.9----30.00-------
2024-07-20 12:36 pm N 7.0 8.9----29.99-------
2024-07-20 12:30 pm N 5.1 8.9----29.99- 69.1- 61.5---
2024-07-20 12:24 pm N 6.0 8.9----29.99- 68.9- 61.3---
2024-07-20 12:18 pm N 5.1 8.0----30.00- 69.3- 61.2---
2024-07-20 12:12 pm N 1.0 4.1----30.00- 69.1- 61.7---
2024-07-20 12:06 pm- 0.0 2.9----30.00- 68.2- 61.9---
2024-07-20 12:00 pm NE 2.9 4.1----29.99+0.04------
2024-07-20 11:54 am- 0.0 1.9----29.99-------
2024-07-20 11:48 amENE 1.0 1.9----29.99-------
2024-07-20 11:42 am- 0.0 1.9----29.98-------
2024-07-20 11:36 am N 1.0 1.9----29.98-------
2024-07-20 11:30 am- 0.0 2.9----29.98- 68.7- 61.2---
2024-07-20 11:24 am N 1.9 2.9----29.98- 68.5- 60.6---
2024-07-20 11:18 am N 2.9 4.1----29.98- 69.6- 60.3---
2024-07-20 11:12 am N 4.1 6.0----29.98- 70.7- 59.7---
2024-07-20 11:06 am NW 2.9 6.0----29.97- 71.8- 59.7---
2024-07-20 11:00 am N 4.1 6.0----29.97+0.02 71.2- 59.7---
2024-07-20 10:54 amNNW 2.9 5.1----29.97- 71.8- 59.2---
2024-07-20 10:48 am- 0.0 2.9----29.97-------
2024-07-20 10:42 am N 1.0 2.9----29.96-------
2024-07-20 10:36 amNNE 1.0 2.9----29.96-------
2024-07-20 10:30 am- 0.0 2.9----29.96- 70.7- 58.6---
2024-07-20 10:24 am N 1.9 4.1----29.96- 71.1- 58.3---
2024-07-20 10:18 amSSW 1.0 5.1----29.96- 71.2- 58.3---
2024-07-20 10:12 amWSW 1.9 5.1----29.96- 71.1- 58.1---
2024-07-20 10:06 amWSW 1.9 5.1----29.96- 71.1- 57.9---
2024-07-20 10:00 amWNW 1.0 2.9----29.96+0.02------
2024-07-20 09:54 am- 0.0 4.1----29.96-------
2024-07-20 09:48 am NW 1.9 6.0----29.96- 70.9- 57.6---
2024-07-20 09:42 amWSW 1.0 6.0----29.96- 71.1- 57.6---
2024-07-20 09:36 am N 1.9 5.1----29.97- 71.1- 57.6---
2024-07-20 09:30 am NW 1.9 6.0----29.96- 71.4- 57.0---
2024-07-20 09:24 am- 0.0 8.0----29.96- 71.4- 57.0---
2024-07-20 09:18 am W 1.0 6.0----29.96- 71.6- 57.0---
2024-07-20 09:12 amWSW 1.9 5.1----29.96- 71.1- 56.8---
2024-07-20 09:06 amWSW 4.1 8.0----29.96- 70.5- 56.7---
2024-07-20 09:00 amWSW 4.1 8.0----29.96+0.01 70.2- 56.5---
2024-07-20 08:54 am W 5.1 8.0----29.96- 70.2- 56.3---
2024-07-20 08:48 am NW 1.0 7.0----29.96- 70.5- 56.5---
2024-07-20 08:42 am W 4.1 8.9----29.96- 69.8- 55.9---
2024-07-20 08:36 am W 5.1 8.9----29.96- 69.4- 55.8---
2024-07-20 08:30 am W 4.1 12.0----29.96- 69.3- 55.6---
2024-07-20 08:24 am W 4.1 8.9----29.96- 69.1- 55.4---
2024-07-20 08:18 am W 4.1 9.9----29.96-------
2024-07-20 08:12 amWSW 5.1 11.1----29.96-------
2024-07-20 08:06 am W 5.1 9.9----29.95-------
2024-07-20 08:00 am W 5.1 8.0----29.95+0.02 68.5- 55.0---
2024-07-20 07:54 am W 4.1 9.9----29.95- 68.5- 55.0---
2024-07-20 07:48 am W 4.1 9.9----29.95-------
2024-07-20 07:42 am W 5.1 8.0----29.95-------
2024-07-20 07:36 am W 5.1 9.9----29.95-------
2024-07-20 07:30 am W 7.0 12.0----29.95- 68.0- 54.7---
2024-07-20 07:24 am W 4.1 12.0----29.95- 67.8- 54.7---
2024-07-20 07:18 am W 4.1 8.9----29.95- 67.6- 54.5---
2024-07-20 07:12 am W 5.1 8.9----29.95- 67.5- 54.5---
2024-07-20 07:06 am W 4.1 8.9----29.94- 67.1- 54.3---
2024-07-20 07:00 am-------29.94+0.00 66.9- 54.1---
2024-07-20 06:54 am-------29.94- 66.9- 54.1---
2024-07-20 06:48 am W 5.1 11.1----29.94-------
2024-07-20 06:42 am W 6.0 9.9----29.94-------
2024-07-20 06:36 am W 5.1 12.0----29.94-------
2024-07-20 06:30 am-------29.94- 66.9- 54.0---
2024-07-20 06:24 am-------29.94- 66.9- 53.8---
2024-07-20 06:18 am W 6.0 12.0----29.94- 66.9- 53.8---
2024-07-20 06:12 am W 5.1 13.0----29.94- 66.7- 53.8---
2024-07-20 06:06 am W 6.0 13.0----29.94- 66.7- 53.8---
2024-07-20 06:00 am W 6.0 12.0----29.94+0.00 66.9- 53.8---
2024-07-20 05:54 am W 6.0 12.0----29.94- 66.9- 53.8---
2024-07-20 05:48 amWSW 6.0 12.0----29.94- 66.9- 53.6---
2024-07-20 05:42 amWSW 7.0 13.0----29.94- 66.9- 53.6---
2024-07-20 05:36 amWSW 6.0 12.0----29.94- 66.9- 53.6---
2024-07-20 05:30 amWSW 6.0 13.0----29.94- 66.9- 53.4---
2024-07-20 05:24 amWSW 6.0 12.0----29.94- 66.9- 53.4---
2024-07-20 05:18 amWSW 6.0 9.9----29.94- 67.1- 53.4---
2024-07-20 05:12 amWSW 6.0 11.1----29.94- 67.1- 53.2---
2024-07-20 05:06 am W 7.0 13.0----29.94- 67.1- 53.1---
2024-07-20 05:00 amWSW 8.0 14.0----29.93-0.02 67.3- 53.1---
2024-07-20 04:54 amWSW 6.0 12.0----29.93- 67.1- 52.9---
2024-07-20 04:48 amWSW 5.1 12.0----29.93-------
2024-07-20 04:42 amWSW 6.0 14.0----29.93-------
2024-07-20 04:36 amWSW 7.0 12.0----29.94-------
2024-07-20 04:30 amWSW 6.0 11.1----29.94- 67.6- 52.2---
2024-07-20 04:24 amWSW 7.0 12.0----29.94- 67.6- 51.8---
2024-07-20 04:18 amWSW 6.0 12.0----29.94-------
2024-07-20 04:12 amWSW 6.0 9.9----29.94-------
2024-07-20 04:06 amWSW 7.0 12.0----29.94-------
2024-07-20 04:00 amWSW 5.1 8.9----29.94-0.02 67.8- 51.4---
2024-07-20 03:54 amWSW 6.0 9.9----29.94- 67.6- 51.1---
2024-07-20 03:48 amWSW 7.0 8.9----29.94-------
2024-07-20 03:42 amWSW 4.1 7.0----29.94-------
2024-07-20 03:36 amWSW 5.1 9.9----29.94-------
2024-07-20 03:30 amWSW 2.9 11.1----29.94- 67.5- 50.4---
2024-07-20 03:24 amWSW 5.1 9.9----29.94- 67.5- 50.5---
2024-07-20 03:18 am-------29.95- 67.5- 50.7---
2024-07-20 03:12 am-------29.95- 67.3- 51.1---
2024-07-20 03:06 am-------29.95- 67.3- 51.1---
2024-07-20 03:00 am SW 1.9 5.1----29.95-0.03 67.1- 51.4---
2024-07-20 02:54 am SW 1.9 4.1----29.95- 66.4- 52.2---
2024-07-20 02:48 am-------29.95- 66.0- 52.3---
2024-07-20 02:42 am-------29.96- 65.8- 51.8---
2024-07-20 02:36 am-------29.96- 65.8- 51.8---
2024-07-20 02:30 amSSW 1.0 2.9----29.96- 65.8- 52.2---
2024-07-20 02:24 am- 0.0 4.1----29.96- 65.8- 52.5---
2024-07-20 02:18 amSSW 1.9 2.9----29.96- 66.2- 51.6---
2024-07-20 02:12 amSSW 2.9 5.1----29.96- 66.6- 51.1---
2024-07-20 02:06 amSSW 1.9 6.0----29.96- 67.1- 51.3---
2024-07-20 02:00 am SW 4.1 8.0----29.96-0.02 67.5- 50.7---
2024-07-20 01:54 am SW 2.9 5.1----29.96- 67.5- 50.7---
2024-07-20 01:48 am SW 2.9 5.1----29.96- 67.8- 50.9---
2024-07-20 01:42 amWSW 2.9 4.1----29.96- 67.5- 50.9---
2024-07-20 01:36 amWSW 2.9 6.0----29.96- 67.3- 50.9---
2024-07-20 01:30 am SW 4.1 5.1----29.96- 67.3- 50.9---
2024-07-20 01:24 am SW 2.9 6.0----29.96- 67.1- 51.6---
2024-07-20 01:18 am SW 2.9 6.0----29.96- 67.1- 51.6---
2024-07-20 01:12 am SW 5.1 7.0----29.96- 67.3- 51.4---
2024-07-20 01:06 am SW 4.1 6.0----29.96- 66.7- 52.0---
2024-07-20 01:00 am SW 4.1 6.0----29.96-0.02 66.6- 51.8---
2024-07-20 12:54 am SW 4.1 6.0----29.97- 66.6- 52.2---
2024-07-20 12:48 amSSW 2.9 5.1----29.97-------
2024-07-20 12:42 am SW 4.1 6.0----29.97-------
2024-07-20 12:36 am SW 1.9 5.1----29.97-------
2024-07-20 12:30 am SW 2.9 6.0----29.98- 65.7- 52.7---
2024-07-20 12:24 am SW 4.1 5.1----29.98- 65.7- 52.5---
2024-07-20 12:18 am SW 2.9 5.1----29.98- 66.4-----
2024-07-20 12:12 am SW 4.1 5.1----29.98- 66.7-----
2024-07-20 12:06 am SW 4.1 6.0----29.98- 67.5-----
2024-07-20 12:00 am SW 4.1 5.1----29.98+0.00 68.0- 51.4---
2024-07-19 11:54 pm SW 4.1 5.1----29.98- 68.0- 51.4---
2024-07-19 11:48 pm SW 4.1 6.0----29.98- 68.0- 51.8---
2024-07-19 11:42 pm SW 4.1 6.0----29.98- 68.0- 51.6---
2024-07-19 11:36 pm SW 2.9 5.1----29.98- 68.2- 51.3---
2024-07-19 11:30 pm SW 5.1 6.0----29.98- 68.5- 51.8---
2024-07-19 11:24 pm SW 4.1 5.1----29.98- 68.4- 52.2---
2024-07-19 11:18 pmWSW 2.9 5.1----29.98- 68.0- 52.2---
2024-07-19 11:12 pm SW 1.9 4.1----29.98- 68.2- 52.7---
2024-07-19 11:06 pm SW 2.9 5.1----29.98- 68.0- 52.7---
2024-07-19 11:00 pm SW 4.1 6.0----29.98+0.01 68.0- 52.9---
2024-07-19 10:54 pm SW 5.1 6.0----29.98- 68.2- 52.7---
2024-07-19 10:48 pm SW 4.1 5.1----29.98-------
2024-07-19 10:42 pm SW 2.9 4.1----29.99-------
2024-07-19 10:36 pm SW 4.1 4.1----29.99-------
2024-07-19 10:30 pm SW 1.9 4.1----29.99- 68.7- 52.7---
2024-07-19 10:24 pmWSW 2.9 4.1----29.99- 68.7- 52.9---
2024-07-19 10:18 pm SW 2.9 4.1----29.99- 68.5- 54.3---
2024-07-19 10:12 pmWSW 1.9 4.1----29.99- 68.7- 54.1---
2024-07-19 10:06 pm SW 1.9 4.1----29.98- 68.9- 55.0---
2024-07-19 10:00 pm SW 1.9 2.9----29.98+0.01 68.9- 54.9---
2024-07-19 09:54 pm SW 1.9 2.9----29.98- 68.5- 56.7---
2024-07-19 09:48 pmSSW 1.9 2.9----29.98- 69.3- 55.9---
2024-07-19 09:42 pm SW 1.9 2.9----29.98- 70.2- 54.0---
2024-07-19 09:36 pmSSW 1.0 1.9----29.98- 70.5- 52.5---
2024-07-19 09:30 pm SW 1.0 1.9----29.98- 70.5- 52.7---
2024-07-19 09:24 pm- 0.0 1.0----29.98- 70.3- 53.8---
2024-07-19 09:18 pm SW 1.0 1.9----29.98- 70.2- 55.8---
2024-07-19 09:12 pm SW 1.0 1.9----29.98- 70.2- 56.1---
2024-07-19 09:06 pm SW 1.0 1.9----29.98- 70.2- 56.7---
2024-07-19 09:00 pm- 0.0 1.9----29.98-0.01 70.3- 57.4---
2024-07-19 08:54 pmSSW 1.0 1.9----29.98- 70.3- 56.7---
2024-07-19 08:48 pm SW 1.0 1.9----29.98- 70.2- 57.7---
2024-07-19 08:42 pm SW 1.0 1.9----29.98- 70.2- 57.2---
2024-07-19 08:36 pm SW 1.9 2.9----29.98- 70.2- 58.1---
2024-07-19 08:30 pmSSW 1.9 1.9----29.97- 70.0- 58.3---
2024-07-19 08:24 pmSSE 1.9 2.9----29.97- 70.0- 57.2---
2024-07-19 08:18 pm S 1.0 1.9----29.98-------
2024-07-19 08:12 pm S 1.0 1.9----29.98-------
2024-07-19 08:06 pm- 0.0 1.9----29.98-------
2024-07-19 08:00 pm SE 1.0 1.9----29.97-0.03 70.3- 56.8---
2024-07-19 07:54 pm SE 1.9 2.9----29.97- 70.0- 57.9---
2024-07-19 07:48 pmSSE 1.0 1.9----29.97- 70.0- 58.8---
2024-07-19 07:42 pm S 1.0 2.9----29.97- 70.2- 59.5---
2024-07-19 07:36 pm S 1.9 1.9----29.97- 70.0- 59.7---
2024-07-19 07:30 pmSSE 1.9 2.9----29.97- 69.6- 59.7---
2024-07-19 07:24 pmSSE 1.0 2.9----29.97- 70.2- 59.9---
2024-07-19 07:18 pmSSE 1.0 2.9----29.97- 70.5- 59.5---
2024-07-19 07:12 pm S 1.0 2.9----29.97- 70.9- 60.3---
2024-07-19 07:06 pm S 1.9 2.9----29.98- 70.2- 60.6---
2024-07-19 07:00 pm S 1.0 1.9----29.98-0.03------
2024-07-19 06:54 pmSSE 1.9 1.9----29.98-------
2024-07-19 06:48 pmSSE 1.0 1.9----29.98- 70.3- 61.5---
2024-07-19 06:42 pm SE 1.0 1.9----29.98- 70.5- 62.4---
2024-07-19 06:36 pm S 1.9 1.9----29.98- 70.0- 61.7---
2024-07-19 06:30 pmSSE 1.9 1.9----29.98-------
2024-07-19 06:24 pmSSE 1.9 1.9----29.98-------
2024-07-19 06:18 pm S 1.0 1.9----29.98-------
2024-07-19 06:12 pm S 1.9 2.9----29.98-------
2024-07-19 06:06 pm S 1.9 2.9----29.98-------
2024-07-19 06:00 pm S 1.0 2.9----29.99-0.01 70.9- 59.7---
2024-07-19 05:54 pm S 1.9 2.9----29.99- 70.9- 58.8---
2024-07-19 05:48 pm S 1.9 2.9----29.99- 70.9- 59.2---
2024-07-19 05:42 pmSSE 1.9 2.9----29.99- 70.0- 60.8---
2024-07-19 05:36 pm- 0.0 1.9----29.99- 70.9- 60.3---
2024-07-19 05:30 pmSSE 1.0 1.9----29.99- 70.7- 59.2---
2024-07-19 05:24 pmSSE 1.9 2.9----29.99- 70.0- 60.8---
2024-07-19 05:18 pmSSE 1.9 1.9----30.00- 70.5- 59.7---
2024-07-19 05:12 pmESE 1.0 1.9----30.00- 70.9- 59.0---
2024-07-19 05:06 pmESE 1.9 2.9----30.00- 70.5- 58.5---
2024-07-19 05:00 pm E 1.9 4.1----30.00+0.00 69.8- 58.3---
2024-07-19 04:54 pm E 2.9 4.1----30.00- 69.8- 57.0---